Home   Weather   Troll Station   Past weeks
Flag for Antarctica

Past Weather in Troll Station, Antarctica — Yesterday and Last 2 Weeks

Now
-17 °F

Extremely cold.


Feels Like: -17 °F
Forecast: -31 / -39 °F
Wind: 2 mph from Southwest

Location: Troll

Current Time: Jul 16, 2019 at 6:34:30 am

Latest Report: Jul 16, 2019 at 5:00 am


Visibility: N/A

Pressure: 29.57 "Hg (24.50 "Hg at 1355m altitude)

Humidity: 35%

Dew Point: -37 °F

Location of Troll StationLocation

Past Weather in Troll Station — Graph

°F

Troll Station Temperature Yesterday

Maximum temperature yesterday: -12 °F (at 1:00 am)
Minimum temperature yesterday: -19 °F (at 5:00 pm)
Average temperature yesterday: -16 °F

High & Low Weather Summary for the Past Weeks

 TemperatureHumidityPressure
High17 °F (Jul 3, 5:00 pm)83% (Jul 4, 8:00 pm)29.60 "Hg (Jul 4, 8:00 pm)
Low-24 °F (Jul 7, 6:00 pm)27% (Jul 3, 2:00 am)28.67 "Hg (Jul 3, 5:00 pm)
Average-5 °F51%29.36 "Hg
* Reported Jul 1 5:00 am — Jul 16 5:00 am, Troll Station. Weather by CustomWeather, © 2019

Note: Actual official high and low records may vary slightly from our data, if they occured in-between our weather recording intervals... More about our weather records

Advertising

Troll Station Weather History for the Previous 24 Hours

Scroll right to see more
 ConditionsComfort  
Time TempWeatherWind HumidityBarometerVisibility
5:00 am
Tue, Jul 16
-17 °FExtremely cold.2 mph35%29.57 "HgN/A
4:00 am-19 °FExtremely cold.1 mph37%29.59 "HgN/A
3:00 am-18 °FExtremely cold.2 mph38%29.57 "HgN/A
2:00 am-18 °FExtremely cold.1 mph42%29.57 "HgN/A
1:00 am-17 °FExtremely cold.1 mph36%29.56 "HgN/A
12:00 am-17 °FExtremely cold.1 mph39%29.53 "HgN/A
11:00 pm
Mon, Jul 15
-16 °FExtremely cold.1 mph39%29.50 "HgN/A
10:00 pm-16 °FExtremely cold.1 mph40%29.50 "HgN/A
9:00 pm-18 °FExtremely cold.1 mph45%29.54 "HgN/A
7:00 pm-16 °FExtremely cold.3 mph44%29.47 "HgN/A
6:00 pm-16 °FExtremely cold.1 mph44%29.47 "HgN/A
5:00 pm-19 °FExtremely cold.2 mph56%29.53 "HgN/A
4:00 pm-18 °FExtremely cold.1 mph69%29.50 "HgN/A
3:00 pm-18 °FExtremely cold.2 mph68%29.47 "HgN/A
1:00 pm-18 °FExtremely cold.1 mph76%29.50 "HgN/A
12:00 pm-17 °FExtremely cold.1 mph75%29.50 "HgN/A
11:00 am-16 °FExtremely cold.1 mph75%29.47 "HgN/A
10:00 am-16 °FExtremely cold.2 mph60%29.50 "HgN/A
9:00 am-16 °FExtremely cold.2 mph55%29.47 "HgN/A
8:00 am-16 °FPassing clouds.2 mph57%29.47 "Hg12 mi
7:00 am-15 °FExtremely cold.2 mph63%29.47 "HgN/A
6:00 am-15 °FExtremely cold.No wind62%29.47 "HgN/A
Weather by CustomWeather, © 2019

See weather overview

LIVE PARTIAL LUNAR ECLIPSE – Watch the eclipse as it happens